Time,TemperatureF,DewpointF,PressureIn,WindDirection,WindDirectionDegrees,WindSpeedMPH,WindSpeedGustMPH,Humidity,HourlyPrecipIn,Conditions,Clouds,dailyrainin,SoftwareType,DateUTC
2013-05-29 00:02:00,59.2,54.7,29.67,SE,129,0.0,0.0,85,0.00,,,0.00,VWS V14.01,2013-05-29 05:02:00,
2013-05-29 00:07:00,59.2,54.7,29.67,SE,129,0.0,0.0,85,0.00,,,0.00,VWS V14.01,2013-05-29 05:07:00,
2013-05-29 00:13:00,59.2,54.7,29.67,SE,129,0.0,0.0,85,0.00,,,0.00,VWS V14.01,2013-05-29 05:13:00,
2013-05-29 00:18:00,59.2,54.7,29.67,SE,129,0.0,0.0,85,0.00,,,0.00,VWS V14.01,2013-05-29 05:18:00,
2013-05-29 00:24:00,59.2,54.7,29.67,ESE,114,0.0,0.0,85,0.00,,,0.00,VWS V14.01,2013-05-29 05:24:00,
2013-05-29 00:30:00,59.2,54.7,29.64,ESE,114,0.0,0.0,85,0.00,,,0.00,VWS V14.01,2013-05-29 05:30:00,
2013-05-29 00:35:00,59.2,54.7,29.64,ESE,114,0.0,0.0,85,0.00,,,0.00,VWS V14.01,2013-05-29 05:35:00,
2013-05-29 00:41:00,59.2,54.7,29.64,ESE,114,0.0,0.0,85,0.00,,,0.00,VWS V14.01,2013-05-29 05:41:00,
2013-05-29 00:46:00,59.2,54.7,29.67,ESE,114,0.0,0.0,85,0.00,,,0.00,VWS V14.01,2013-05-29 05:46:00,
2013-05-29 00:52:00,59.2,55.0,29.67,ESE,114,0.0,0.0,86,0.00,,,0.00,VWS V14.01,2013-05-29 05:52:00,
2013-05-29 00:57:00,59.2,55.0,29.67,ESE,114,0.0,0.0,86,0.00,,,0.00,VWS V14.01,2013-05-29 05:57:00,
2013-05-29 01:03:00,59.4,55.2,29.64,NE,41,0.0,0.0,86,0.00,,,0.00,VWS V14.01,2013-05-29 06:03:00,
2013-05-29 01:08:00,59.4,55.2,29.64,NE,40,0.0,0.0,86,0.00,,,0.00,VWS V14.01,2013-05-29 06:08:00,
2013-05-29 01:13:00,59.4,55.2,29.64,NE,40,0.0,0.0,86,0.00,,,0.00,VWS V14.01,2013-05-29 06:13:00,
2013-05-29 01:18:00,59.4,55.2,29.64,NE,40,0.0,0.0,86,0.00,,,0.00,VWS V14.01,2013-05-29 06:18:00,
2013-05-29 01:24:00,59.4,55.2,29.64,NE,40,0.0,0.0,86,0.00,,,0.00,VWS V14.01,2013-05-29 06:24:00,
2013-05-29 01:29:00,59.4,55.2,29.64,NE,40,0.0,0.0,86,0.00,,,0.00,VWS V14.01,2013-05-29 06:29:00,
2013-05-29 01:34:00,59.4,55.2,29.64,NE,40,0.0,0.0,86,0.00,,,0.00,VWS V14.01,2013-05-29 06:34:00,
2013-05-29 01:40:00,59.4,55.5,29.64,NE,40,0.0,0.0,87,0.00,,,0.00,VWS V14.01,2013-05-29 06:40:00,
2013-05-29 01:45:00,59.5,55.7,29.64,NE,40,0.0,0.0,87,0.00,,,0.00,VWS V14.01,2013-05-29 06:45:00,
2013-05-29 01:50:00,59.5,55.7,29.64,NE,40,0.0,0.0,87,0.00,,,0.00,VWS V14.01,2013-05-29 06:50:00,
2013-05-29 01:55:00,59.5,55.7,29.64,NE,40,0.0,0.0,87,0.00,,,0.00,VWS V14.01,2013-05-29 06:55:00,
2013-05-29 02:01:00,59.5,55.7,29.67,NE,40,0.0,0.0,87,0.00,,,0.00,VWS V14.01,2013-05-29 07:01:00,
2013-05-29 02:06:00,59.5,55.7,29.67,NNE,30,0.0,0.0,87,0.00,,,0.00,VWS V14.01,2013-05-29 07:06:00,
2013-05-29 02:11:00,59.5,55.7,29.67,NNE,30,0.0,0.0,87,0.00,,,0.00,VWS V14.01,2013-05-29 07:11:00,
2013-05-29 02:16:00,59.5,55.7,29.67,NNE,30,0.0,0.0,87,0.00,,,0.00,VWS V14.01,2013-05-29 07:16:00,
2013-05-29 02:21:00,59.5,55.7,29.67,NNE,30,0.0,0.0,87,0.00,,,0.00,VWS V14.01,2013-05-29 07:21:00,
2013-05-29 02:27:00,59.5,56.0,29.67,NNE,30,0.0,0.0,88,0.00,,,0.00,VWS V14.01,2013-05-29 07:27:00,
2013-05-29 02:33:00,59.5,56.0,29.67,NNE,30,0.0,0.0,88,0.00,,,0.00,VWS V14.01,2013-05-29 07:33:00,
2013-05-29 02:38:00,59.5,56.0,29.67,NNE,30,0.0,0.0,88,0.00,,,0.00,VWS V14.01,2013-05-29 07:38:00,
2013-05-29 02:44:00,59.5,56.0,29.67,NNE,30,0.0,0.0,88,0.00,,,0.00,VWS V14.01,2013-05-29 07:44:00,
2013-05-29 02:49:00,59.5,56.0,29.67,NNE,30,0.0,0.0,88,0.00,,,0.00,VWS V14.01,2013-05-29 07:49:00,
2013-05-29 02:55:00,59.5,56.0,29.67,NNE,30,0.0,0.0,88,0.00,,,0.00,VWS V14.01,2013-05-29 07:55:00,
2013-05-29 03:00:00,59.5,56.0,29.67,NNE,30,0.0,0.0,88,0.00,,,0.00,VWS V14.01,2013-05-29 08:00:00,
2013-05-29 03:05:00,59.5,56.0,29.67,NNE,18,0.0,0.0,88,0.00,,,0.00,VWS V14.01,2013-05-29 08:05:00,
2013-05-29 03:11:00,59.4,55.8,29.67,NNE,18,0.0,0.0,88,0.00,,,0.00,VWS V14.01,2013-05-29 08:11:00,
2013-05-29 03:16:00,59.4,55.8,29.67,NNE,18,0.0,0.0,88,0.00,,,0.00,VWS V14.01,2013-05-29 08:16:00,
2013-05-29 03:21:00,59.2,55.6,29.67,NNE,18,0.0,0.0,88,0.00,,,0.00,VWS V14.01,2013-05-29 08:21:00,
2013-05-29 03:27:00,59.2,55.6,29.67,North,353,0.0,0.0,88,0.00,,,0.00,VWS V14.01,2013-05-29 08:27:00,
2013-05-29 03:33:00,59.2,55.6,29.67,North,353,0.0,0.0,88,0.00,,,0.00,VWS V14.01,2013-05-29 08:33:00,
2013-05-29 03:39:00,59.2,55.6,29.67,North,353,0.0,0.0,88,0.00,,,0.00,VWS V14.01,2013-05-29 08:39:00,
2013-05-29 03:44:00,59.2,55.6,29.67,North,353,0.0,0.0,88,0.00,,,0.00,VWS V14.01,2013-05-29 08:44:00,
2013-05-29 03:50:00,59.0,55.8,29.67,North,353,0.0,0.0,89,0.00,,,0.00,VWS V14.01,2013-05-29 08:50:00,
2013-05-29 03:55:00,59.0,55.8,29.67,North,353,0.0,0.0,89,0.00,,,0.00,VWS V14.01,2013-05-29 08:55:00,
2013-05-29 04:00:00,59.0,55.8,29.67,North,357,0.0,0.0,89,0.00,,,0.00,VWS V14.01,2013-05-29 09:00:00,
2013-05-29 04:06:00,59.0,55.8,29.67,North,357,0.0,0.0,89,0.00,,,0.00,VWS V14.01,2013-05-29 09:06:00,
2013-05-29 04:12:00,59.0,55.8,29.67,NNE,12,2.7,3.6,89,0.00,,,0.00,VWS V14.01,2013-05-29 09:12:00,
2013-05-29 04:18:00,59.0,55.8,29.67,NNE,12,0.0,0.0,89,0.00,,,0.00,VWS V14.01,2013-05-29 09:18:00,
2013-05-29 04:23:00,59.0,55.8,29.67,NNE,12,0.0,0.0,89,0.00,,,0.00,VWS V14.01,2013-05-29 09:23:00,
2013-05-29 04:29:00,58.8,55.9,29.67,NNE,12,0.0,0.0,90,0.00,,,0.00,VWS V14.01,2013-05-29 09:29:00,
2013-05-29 04:35:00,58.8,55.9,29.67,North,11,0.0,0.0,90,0.00,,,0.00,VWS V14.01,2013-05-29 09:35:00,
2013-05-29 04:40:00,58.8,55.9,29.67,NNE,12,0.0,0.0,90,0.00,,,0.00,VWS V14.01,2013-05-29 09:40:00,
2013-05-29 04:46:00,59.0,56.1,29.67,North,11,0.0,0.0,90,0.00,,,0.00,VWS V14.01,2013-05-29 09:46:00,
2013-05-29 04:51:00,59.0,56.1,29.67,North,11,0.0,0.0,90,0.00,,,0.00,VWS V14.01,2013-05-29 09:51:00,
2013-05-29 04:57:00,59.0,56.1,29.67,NNE,12,0.0,0.0,90,0.00,,,0.00,VWS V14.01,2013-05-29 09:57:00,
2013-05-29 05:03:00,58.8,55.9,29.70,North,11,0.0,0.0,90,0.00,,,0.00,VWS V14.01,2013-05-29 10:03:00,
2013-05-29 05:08:00,58.8,56.2,29.70,NNE,12,0.0,0.0,91,0.00,,,0.00,VWS V14.01,2013-05-29 10:08:00,
2013-05-29 05:14:00,58.8,56.2,29.70,NNE,12,0.0,0.0,91,0.00,,,0.00,VWS V14.01,2013-05-29 10:14:00,
2013-05-29 05:19:00,59.0,56.1,29.70,NNE,12,0.0,0.0,90,0.00,,,0.00,VWS V14.01,2013-05-29 10:19:00,
2013-05-29 05:25:00,59.0,56.4,29.70,North,11,0.0,0.0,91,0.00,,,0.00,VWS V14.01,2013-05-29 10:25:00,
2013-05-29 05:30:00,59.0,56.4,29.73,NNE,12,0.0,0.0,91,0.00,,,0.00,VWS V14.01,2013-05-29 10:30:00,
2013-05-29 05:36:00,59.0,56.4,29.73,North,11,0.0,0.0,91,0.00,,,0.00,VWS V14.01,2013-05-29 10:36:00,
2013-05-29 05:41:00,59.0,56.4,29.73,NNE,12,0.0,0.0,91,0.00,,,0.00,VWS V14.01,2013-05-29 10:41:00,
2013-05-29 05:47:00,59.2,56.9,29.73,East,88,0.0,0.0,92,0.00,,,0.00,VWS V14.01,2013-05-29 10:47:00,
2013-05-29 05:53:00,59.2,56.9,29.73,East,88,0.0,0.0,92,0.00,,,0.00,VWS V14.01,2013-05-29 10:53:00,
2013-05-29 05:59:00,59.2,56.9,29.73,SSE,158,0.0,0.0,92,0.00,,,0.00,VWS V14.01,2013-05-29 10:59:00,
2013-05-29 06:04:00,59.4,57.0,29.73,South,170,0.0,0.0,92,0.00,,,0.00,VWS V14.01,2013-05-29 11:04:00,
2013-05-29 06:09:00,59.4,57.0,29.73,South,169,0.0,0.0,92,0.00,,,0.00,VWS V14.01,2013-05-29 11:09:00,
2013-05-29 06:14:00,59.4,57.0,29.73,South,169,0.0,0.0,92,0.00,,,0.00,VWS V14.01,2013-05-29 11:14:00,
2013-05-29 06:19:00,59.5,57.5,29.73,South,169,0.0,0.0,93,0.00,,,0.00,VWS V14.01,2013-05-29 11:19:00,
2013-05-29 06:25:00,59.7,57.7,29.73,South,169,0.0,0.0,93,0.00,,,0.00,VWS V14.01,2013-05-29 11:25:00,
2013-05-29 06:30:00,59.7,57.7,29.73,South,169,0.0,0.0,93,0.00,,,0.00,VWS V14.01,2013-05-29 11:30:00,
2013-05-29 06:35:00,59.9,57.9,29.73,South,169,0.0,0.0,93,0.00,,,0.00,VWS V14.01,2013-05-29 11:35:00,
2013-05-29 06:41:00,60.1,58.0,29.73,South,169,0.0,0.0,93,0.00,,,0.00,VWS V14.01,2013-05-29 11:41:00,
2013-05-29 06:46:00,60.1,58.3,29.73,South,169,0.0,0.0,94,0.00,,,0.00,VWS V14.01,2013-05-29 11:46:00,
2013-05-29 06:52:00,60.4,58.7,29.73,South,178,0.0,0.0,94,0.00,,,0.00,VWS V14.01,2013-05-29 11:52:00,
2013-05-29 06:57:00,60.4,58.7,29.73,SSE,168,0.0,0.0,94,0.00,,,0.00,VWS V14.01,2013-05-29 11:57:00,
2013-05-29 07:02:00,60.6,58.9,29.73,SSE,155,0.0,0.0,94,0.00,,,0.00,VWS V14.01,2013-05-29 12:02:00,
2013-05-29 07:08:00,60.6,59.2,29.73,SSE,158,0.0,0.0,95,0.00,,,0.00,VWS V14.01,2013-05-29 12:08:00,
2013-05-29 07:14:00,60.6,59.2,29.73,South,180,0.0,0.0,95,0.00,,,0.00,VWS V14.01,2013-05-29 12:14:00,
2013-05-29 07:19:00,60.6,59.2,29.73,ESE,115,0.0,0.0,95,0.00,,,0.00,VWS V14.01,2013-05-29 12:19:00,
2013-05-29 07:24:00,60.8,59.4,29.73,ESE,116,0.0,0.0,95,0.00,,,0.00,VWS V14.01,2013-05-29 12:24:00,
2013-05-29 07:29:00,61.0,59.8,29.73,South,184,0.0,0.0,96,0.00,,,0.00,VWS V14.01,2013-05-29 12:29:00,
2013-05-29 07:35:00,61.2,60.0,29.73,South,170,0.0,0.0,96,0.00,,,0.00,VWS V14.01,2013-05-29 12:35:00,
2013-05-29 07:40:00,61.3,60.2,29.73,South,170,0.0,0.0,96,0.00,,,0.00,VWS V14.01,2013-05-29 12:40:00,
2013-05-29 07:45:00,61.5,60.7,29.73,South,171,0.0,0.0,97,0.00,,,0.00,VWS V14.01,2013-05-29 12:45:00,
2013-05-29 07:50:00,61.7,60.8,29.73,SSW,213,0.0,0.0,97,0.00,,,0.00,VWS V14.01,2013-05-29 12:50:00,
2013-05-29 07:56:00,61.9,61.0,29.73,South,172,0.0,0.0,97,0.00,,,0.00,VWS V14.01,2013-05-29 12:56:00,
2013-05-29 08:01:00,61.9,61.0,29.73,SSE,164,0.0,0.0,97,0.00,,,0.00,VWS V14.01,2013-05-29 13:01:00,
2013-05-29 08:06:00,62.1,61.2,29.73,SSE,153,0.0,0.0,97,0.00,,,0.00,VWS V14.01,2013-05-29 13:06:00,
2013-05-29 08:12:00,62.2,61.7,29.73,SSW,192,0.0,0.0,98,0.00,,,0.00,VWS V14.01,2013-05-29 13:12:00,
2013-05-29 08:17:00,62.2,61.7,29.73,SE,144,0.0,0.0,98,0.00,,,0.00,VWS V14.01,2013-05-29 13:17:00,
2013-05-29 08:23:00,62.6,62.0,29.73,South,185,0.0,0.0,98,0.00,,,0.00,VWS V14.01,2013-05-29 13:23:00,
2013-05-29 08:28:00,62.8,62.2,29.73,South,179,0.0,0.0,98,0.00,,,0.00,VWS V14.01,2013-05-29 13:28:00,
2013-05-29 08:33:00,63.1,62.6,29.73,South,176,0.0,0.0,98,0.00,,,0.00,VWS V14.01,2013-05-29 13:33:00,
2013-05-29 08:38:00,63.3,62.8,29.73,SSW,202,0.0,0.0,98,0.00,,,0.00,VWS V14.01,2013-05-29 13:38:00,
2013-05-29 08:43:00,63.3,62.8,29.73,SW,225,3.1,4.9,98,0.00,,,0.00,VWS V14.01,2013-05-29 13:43:00,
2013-05-29 08:48:00,63.5,62.9,29.73,SW,220,0.0,3.6,98,0.00,,,0.00,VWS V14.01,2013-05-29 13:48:00,
2013-05-29 08:53:00,63.7,63.1,29.73,SSE,152,4.0,4.0,98,0.00,,,0.00,VWS V14.01,2013-05-29 13:53:00,
2013-05-29 08:59:00,63.9,63.3,29.73,SW,217,4.0,4.0,98,0.00,,,0.00,VWS V14.01,2013-05-29 13:59:00,
2013-05-29 09:04:00,63.9,63.3,29.73,SW,216,0.0,0.0,98,0.00,,,0.00,VWS V14.01,2013-05-29 14:04:00,
2013-05-29 09:09:00,64.0,63.5,29.73,South,169,5.8,6.3,98,0.00,,,0.00,VWS V14.01,2013-05-29 14:09:00,
2013-05-29 09:14:00,64.2,63.7,29.73,WSW,240,5.4,6.3,98,0.00,,,0.00,VWS V14.01,2013-05-29 14:14:00,
2013-05-29 09:20:00,64.6,64.0,29.76,SE,144,2.7,4.5,98,0.00,,,0.00,VWS V14.01,2013-05-29 14:20:00,
2013-05-29 09:25:00,65.3,64.7,29.76,SSE,166,3.1,5.8,98,0.00,,,0.00,VWS V14.01,2013-05-29 14:25:00,
2013-05-29 09:30:00,65.5,64.9,29.76,WSW,249,5.8,6.3,98,0.00,,,0.00,VWS V14.01,2013-05-29 14:30:00,
2013-05-29 09:36:00,65.8,65.3,29.76,SW,218,5.8,6.3,98,0.00,,,0.00,VWS V14.01,2013-05-29 14:36:00,
2013-05-29 09:41:00,66.2,65.6,29.76,SW,222,3.1,8.1,98,0.00,,,0.00,VWS V14.01,2013-05-29 14:41:00,
2013-05-29 09:47:00,65.8,63.8,29.76,WSW,240,9.6,9.6,93,0.00,,,0.00,VWS V14.01,2013-05-29 14:47:00,
2013-05-29 09:52:00,66.4,59.7,29.76,WSW,245,5.8,7.6,79,0.00,,,0.00,VWS V14.01,2013-05-29 14:52:00,
2013-05-29 09:58:00,66.9,58.8,29.76,SSW,201,4.5,5.8,75,0.00,,,0.00,VWS V14.01,2013-05-29 14:58:00,
2013-05-29 10:04:00,67.6,59.4,29.76,SSW,204,4.9,4.9,75,0.00,,,0.00,VWS V14.01,2013-05-29 15:04:00,
2013-05-29 10:09:00,68.2,58.0,29.76,SW,235,3.6,8.3,70,0.00,,,0.00,VWS V14.01,2013-05-29 15:09:00,
2013-05-29 10:15:00,68.9,52.1,29.76,SSW,210,7.6,10.1,55,0.00,,,0.00,VWS V14.01,2013-05-29 15:15:00,
2013-05-29 10:20:00,69.3,48.2,29.76,SW,222,8.3,12.8,47,0.00,,,0.00,VWS V14.01,2013-05-29 15:20:00,
2013-05-29 10:26:00,69.4,46.6,29.76,WSW,237,4.0,14.1,44,0.00,,,0.00,VWS V14.01,2013-05-29 15:26:00,
2013-05-29 10:31:00,69.6,47.4,29.76,SW,219,7.6,10.1,45,0.00,,,0.00,VWS V14.01,2013-05-29 15:31:00,
2013-05-29 10:36:00,70.0,46.5,29.76,West,267,10.1,10.5,43,0.00,,,0.00,VWS V14.01,2013-05-29 15:36:00,
2013-05-29 10:41:00,69.8,43.8,29.76,SSW,197,12.8,13.2,39,0.00,,,0.00,VWS V14.01,2013-05-29 15:41:00,
2013-05-29 10:47:00,70.2,46.0,29.76,SSW,198,6.3,10.1,42,0.00,,,0.00,VWS V14.01,2013-05-29 15:47:00,
2013-05-29 10:52:00,70.5,43.7,29.76,SSW,206,8.7,13.2,38,0.00,,,0.00,VWS V14.01,2013-05-29 15:52:00,
2013-05-29 10:58:00,71.1,43.5,29.76,West,259,8.7,11.0,37,0.00,,,0.00,VWS V14.01,2013-05-29 15:58:00,
2013-05-29 11:03:00,71.2,44.4,29.76,WSW,248,6.3,8.1,38,0.00,,OVC070,0.00,VWS V14.01,2013-05-29 16:03:00,
2013-05-29 11:08:00,71.4,43.1,29.76,SSW,200,11.4,12.8,36,0.00,,OVC070,0.00,VWS V14.01,2013-05-29 16:08:00,
2013-05-29 11:14:00,71.8,41.9,29.76,WSW,253,6.3,17.9,34,0.00,,OVC070,0.00,VWS V14.01,2013-05-29 16:14:00,
2013-05-29 11:19:00,71.8,41.9,29.76,SW,214,8.3,8.3,34,0.00,,OVC070,0.00,VWS V14.01,2013-05-29 16:19:00,
2013-05-29 11:25:00,72.3,42.4,29.76,WSW,238,15.4,15.4,34,0.00,,OVC070,0.00,VWS V14.01,2013-05-29 16:25:00,
2013-05-29 11:30:00,72.5,42.6,29.76,SW,220,2.7,8.1,34,0.00,,OVC070,0.00,VWS V14.01,2013-05-29 16:30:00,
2013-05-29 11:36:00,72.9,42.1,29.76,South,188,10.5,11.0,33,0.00,,OVC070,0.00,VWS V14.01,2013-05-29 16:36:00,
2013-05-29 11:42:00,73.2,41.6,29.76,SW,222,3.1,12.3,32,0.00,,OVC070,0.00,VWS V14.01,2013-05-29 16:42:00,
2013-05-29 11:47:00,73.6,41.9,29.76,SSW,212,6.3,9.6,32,0.00,,OVC070,0.00,VWS V14.01,2013-05-29 16:47:00,
2013-05-29 11:53:00,73.8,42.1,29.76,SW,216,0.0,8.1,32,0.00,,OVC070,0.00,VWS V14.01,2013-05-29 16:53:00,
2013-05-29 11:58:00,74.1,42.4,29.76,South,185,5.8,5.8,32,0.00,,OVC070,0.00,VWS V14.01,2013-05-29 16:58:00,
2013-05-29 12:03:00,74.5,41.9,29.76,SW,218,7.6,10.1,31,0.00,,SCT028,0.00,VWS V14.01,2013-05-29 17:03:00,
2013-05-29 12:08:00,74.8,43.0,29.76,WSW,238,4.0,6.3,32,0.00,,SCT028,0.00,VWS V14.01,2013-05-29 17:08:00,
2013-05-29 12:13:00,74.7,42.0,29.76,SW,217,5.8,14.1,31,0.00,,SCT028,0.00,VWS V14.01,2013-05-29 17:13:00,
2013-05-29 12:19:00,75.0,43.2,29.76,SSE,167,5.4,6.3,32,0.00,,SCT028,0.00,VWS V14.01,2013-05-29 17:19:00,
2013-05-29 12:24:00,75.4,42.7,29.76,WSW,247,11.0,11.0,31,0.00,,SCT028,0.00,VWS V14.01,2013-05-29 17:24:00,
2013-05-29 12:30:00,75.9,42.3,29.76,SSE,147,5.4,5.4,30,0.00,,SCT028,0.00,VWS V14.01,2013-05-29 17:30:00,
2013-05-29 12:36:00,76.6,40.2,29.76,SSE,147,5.8,7.2,27,0.00,,SCT028,0.00,VWS V14.01,2013-05-29 17:36:00,
2013-05-29 12:41:00,77.0,39.5,29.76,NNW,343,5.4,5.8,26,0.00,,SCT028,0.00,VWS V14.01,2013-05-29 17:41:00,
2013-05-29 12:46:00,77.2,40.7,29.73,SE,140,4.0,8.3,27,0.00,,SCT028,0.00,VWS V14.01,2013-05-29 17:46:00,
2013-05-29 12:51:00,77.2,40.7,29.73,SSW,192,5.4,8.3,27,0.00,,SCT028,0.00,VWS V14.01,2013-05-29 17:51:00,
2013-05-29 12:57:00,77.5,42.8,29.73,SSE,164,5.8,8.7,29,0.00,,SCT028,0.00,VWS V14.01,2013-05-29 17:57:00,
2013-05-29 13:02:00,78.1,42.4,29.73,SSW,204,3.1,6.3,28,0.00,,FEW028,0.00,VWS V14.01,2013-05-29 18:02:00,
2013-05-29 13:07:00,78.3,40.6,29.73,SSE,151,8.3,8.3,26,0.00,,FEW028,0.00,VWS V14.01,2013-05-29 18:07:00,
2013-05-29 13:13:00,78.8,40.0,29.73,South,170,5.4,5.8,25,0.00,,FEW028,0.00,VWS V14.01,2013-05-29 18:13:00,
2013-05-29 13:18:00,79.2,39.3,29.73,SSE,167,4.0,6.3,24,0.00,,FEW028,0.00,VWS V14.01,2013-05-29 18:18:00,
2013-05-29 13:24:00,79.0,38.1,29.73,WSW,245,3.1,9.6,23,0.00,,FEW028,0.00,VWS V14.01,2013-05-29 18:24:00,
2013-05-29 13:29:00,79.0,38.1,29.73,SW,222,3.6,8.3,23,0.00,,FEW028,0.00,VWS V14.01,2013-05-29 18:29:00,
2013-05-29 13:35:00,79.5,37.4,29.73,South,190,5.8,8.7,22,0.00,,FEW028,0.00,VWS V14.01,2013-05-29 18:35:00,
2013-05-29 13:40:00,79.9,38.8,29.73,SSW,195,3.1,4.9,23,0.00,,FEW028,0.00,VWS V14.01,2013-05-29 18:40:00,
2013-05-29 13:46:00,80.2,39.1,29.73,SW,231,8.1,9.2,23,0.00,,FEW028,0.00,VWS V14.01,2013-05-29 18:46:00,
2013-05-29 13:51:00,80.1,39.0,29.73,SSE,156,5.8,5.8,23,0.00,,FEW028,0.00,VWS V14.01,2013-05-29 18:51:00,
2013-05-29 13:57:00,79.9,38.8,29.73,SSW,195,5.4,6.3,23,0.00,,FEW028,0.00,VWS V14.01,2013-05-29 18:57:00,
2013-05-29 14:02:00,80.2,38.0,29.73,SSW,195,8.7,8.7,22,0.00,,CLR,0.00,VWS V14.01,2013-05-29 19:02:00,
2013-05-29 14:07:00,80.4,38.1,29.73,SSE,151,6.3,9.2,22,0.00,,CLR,0.00,VWS V14.01,2013-05-29 19:07:00,
2013-05-29 14:12:00,81.0,38.6,29.73,SSW,209,4.0,5.4,22,0.00,,CLR,0.00,VWS V14.01,2013-05-29 19:12:00,
2013-05-29 14:17:00,81.1,38.7,29.73,South,174,8.1,11.0,22,0.00,,CLR,0.00,VWS V14.01,2013-05-29 19:17:00,
2013-05-29 14:22:00,81.5,37.8,29.73,SSE,165,6.3,6.3,21,0.00,,CLR,0.00,VWS V14.01,2013-05-29 19:22:00,
2013-05-29 14:27:00,81.5,37.8,29.73,SSW,207,7.6,9.6,21,0.00,,CLR,0.00,VWS V14.01,2013-05-29 19:27:00,
2013-05-29 14:32:00,80.8,37.2,29.73,South,189,5.8,7.6,21,0.00,,CLR,0.00,VWS V14.01,2013-05-29 19:32:00,
2013-05-29 14:38:00,80.4,38.1,29.73,South,178,6.3,10.1,22,0.00,,CLR,0.00,VWS V14.01,2013-05-29 19:38:00,
2013-05-29 14:43:00,80.6,38.3,29.73,SW,215,11.0,11.0,22,0.00,,CLR,0.00,VWS V14.01,2013-05-29 19:43:00,
2013-05-29 14:49:00,80.8,38.4,29.76,South,187,3.6,8.1,22,0.00,,CLR,0.00,VWS V14.01,2013-05-29 19:49:00,
2013-05-29 14:55:00,80.4,38.1,29.76,ESE,118,5.8,10.5,22,0.00,,CLR,0.00,VWS V14.01,2013-05-29 19:55:00,
2013-05-29 15:00:00,80.4,39.3,29.73,SSW,208,3.6,7.6,23,0.00,,CLR,0.00,VWS V14.01,2013-05-29 20:00:00,
2013-05-29 15:05:00,81.3,38.9,29.73,South,170,5.4,8.1,22,0.00,,CLR,0.00,VWS V14.01,2013-05-29 20:05:00,
2013-05-29 15:10:00,81.3,38.9,29.73,SSW,198,7.6,8.3,22,0.00,,CLR,0.00,VWS V14.01,2013-05-29 20:10:00,
2013-05-29 15:16:00,81.3,38.9,29.73,SSE,148,4.9,5.4,22,0.00,,CLR,0.00,VWS V14.01,2013-05-29 20:16:00,
2013-05-29 15:21:00,81.1,38.7,29.73,South,173,8.3,14.1,22,0.00,,CLR,0.00,VWS V14.01,2013-05-29 20:21:00,
2013-05-29 15:27:00,81.7,39.2,29.73,SSE,149,2.7,8.3,22,0.00,,CLR,0.00,VWS V14.01,2013-05-29 20:27:00,
2013-05-29 15:32:00,82.2,39.6,29.73,South,185,3.6,10.5,22,0.00,,CLR,0.00,VWS V14.01,2013-05-29 20:32:00,
2013-05-29 15:38:00,82.0,39.5,29.73,South,175,8.1,8.1,22,0.00,,CLR,0.00,VWS V14.01,2013-05-29 20:38:00,
2013-05-29 15:43:00,82.2,39.6,29.73,South,178,3.6,8.7,22,0.00,,CLR,0.00,VWS V14.01,2013-05-29 20:43:00,
2013-05-29 15:49:00,83.1,39.2,29.73,South,178,10.1,10.5,21,0.00,,CLR,0.00,VWS V14.01,2013-05-29 20:49:00,
2013-05-29 15:55:00,84.2,38.8,29.73,South,181,2.7,4.9,20,0.00,,CLR,0.00,VWS V14.01,2013-05-29 20:55:00,
2013-05-29 16:00:00,84.2,38.8,29.70,ESE,115,4.0,4.9,20,0.00,,CLR,0.00,VWS V14.01,2013-05-29 21:00:00,
2013-05-29 16:06:00,85.1,39.6,29.70,SSE,155,8.3,8.3,20,0.00,,CLR,0.00,VWS V14.01,2013-05-29 21:06:00,
2013-05-29 16:11:00,85.6,40.0,29.70,SE,128,2.2,7.2,20,0.00,,CLR,0.00,VWS V14.01,2013-05-29 21:11:00,
2013-05-29 16:16:00,85.8,40.2,29.70,SSE,155,4.0,5.8,20,0.00,,CLR,0.00,VWS V14.01,2013-05-29 21:16:00,
2013-05-29 16:21:00,85.8,40.2,29.70,SSE,148,3.6,7.6,20,0.00,,CLR,0.00,VWS V14.01,2013-05-29 21:21:00,
2013-05-29 16:26:00,86.2,39.1,29.70,East,101,3.6,8.3,19,0.00,,CLR,0.00,VWS V14.01,2013-05-29 21:26:00,
2013-05-29 16:31:00,86.5,39.4,29.70,South,181,7.6,7.6,19,0.00,,CLR,0.00,VWS V14.01,2013-05-29 21:31:00,
2013-05-29 16:36:00,86.0,39.0,29.70,SSE,161,3.6,5.4,19,0.00,,CLR,0.00,VWS V14.01,2013-05-29 21:36:00,
2013-05-29 16:41:00,85.6,38.7,29.70,East,90,6.3,6.3,19,0.00,,CLR,0.00,VWS V14.01,2013-05-29 21:41:00,
2013-05-29 16:46:00,85.3,39.7,29.70,South,191,5.8,5.8,20,0.00,,CLR,0.00,VWS V14.01,2013-05-29 21:46:00,
2013-05-29 16:52:00,85.1,39.6,29.70,SE,143,6.3,8.3,20,0.00,,CLR,0.00,VWS V14.01,2013-05-29 21:52:00,
2013-05-29 16:58:00,84.6,39.1,29.70,SSW,197,3.6,6.3,20,0.00,,CLR,0.00,VWS V14.01,2013-05-29 21:58:00,
2013-05-29 17:03:00,84.2,38.8,29.70,ESE,112,5.4,8.1,20,0.00,,FEW040,0.00,VWS V14.01,2013-05-29 22:03:00,
2013-05-29 17:09:00,84.0,38.7,29.70,South,179,5.4,8.1,20,0.00,,FEW040,0.00,VWS V14.01,2013-05-29 22:09:00,
2013-05-29 17:14:00,83.5,39.5,29.70,SSE,155,3.1,6.3,21,0.00,,FEW040,0.00,VWS V14.01,2013-05-29 22:14:00,
2013-05-29 17:20:00,83.7,39.6,29.70,South,181,10.1,10.1,21,0.00,,FEW040,0.00,VWS V14.01,2013-05-29 22:20:00,
2013-05-29 17:26:00,83.7,38.4,29.70,South,169,8.3,8.3,20,0.00,,FEW040,0.00,VWS V14.01,2013-05-29 22:26:00,
2013-05-29 17:31:00,83.8,39.8,29.70,NNE,28,3.6,6.3,21,0.00,,FEW040,0.00,VWS V14.01,2013-05-29 22:31:00,
2013-05-29 17:37:00,83.7,39.6,29.70,SW,217,5.8,8.3,21,0.00,,FEW040,0.00,VWS V14.01,2013-05-29 22:37:00,
2013-05-29 17:42:00,83.5,39.5,29.70,SSE,165,5.4,5.8,21,0.00,,FEW040,0.00,VWS V14.01,2013-05-29 22:42:00,
2013-05-29 17:48:00,83.7,39.6,29.70,SSE,157,5.8,8.1,21,0.00,,FEW040,0.00,VWS V14.01,2013-05-29 22:48:00,
2013-05-29 17:54:00,83.7,39.6,29.70,South,183,5.4,8.7,21,0.00,,FEW040,0.00,VWS V14.01,2013-05-29 22:54:00,
2013-05-29 17:59:00,82.9,39.0,29.70,East,87,0.0,5.4,21,0.00,,FEW040,0.00,VWS V14.01,2013-05-29 22:59:00,
2013-05-29 18:05:00,82.0,39.5,29.70,SW,216,4.0,11.0,22,0.00,,CLR,0.00,VWS V14.01,2013-05-29 23:05:00,
2013-05-29 18:11:00,81.1,38.7,29.70,SSE,150,3.1,4.0,22,0.00,,CLR,0.00,VWS V14.01,2013-05-29 23:11:00,
2013-05-29 18:16:00,80.6,39.4,29.70,South,184,4.9,7.6,23,0.00,,CLR,0.00,VWS V14.01,2013-05-29 23:16:00,
2013-05-29 18:21:00,80.2,41.3,29.70,SSE,158,6.3,7.6,25,0.00,,CLR,0.00,VWS V14.01,2013-05-29 23:21:00,
2013-05-29 18:27:00,79.7,40.8,29.70,SSE,155,0.0,5.8,25,0.00,,CLR,0.00,VWS V14.01,2013-05-29 23:27:00,
2013-05-29 18:33:00,79.7,41.8,29.70,SE,139,3.6,6.3,26,0.00,,CLR,0.00,VWS V14.01,2013-05-29 23:33:00,
2013-05-29 18:38:00,79.9,42.0,29.70,SSW,203,4.9,7.6,26,0.00,,CLR,0.00,VWS V14.01,2013-05-29 23:38:00,
2013-05-29 18:43:00,79.9,42.0,29.70,South,169,6.3,6.3,26,0.00,,CLR,0.00,VWS V14.01,2013-05-29 23:43:00,
2013-05-29 18:48:00,79.7,42.8,29.70,South,181,3.1,8.7,27,0.00,,CLR,0.00,VWS V14.01,2013-05-29 23:48:00,
2013-05-29 18:54:00,79.3,42.5,29.70,South,176,3.6,4.9,27,0.00,,CLR,0.00,VWS V14.01,2013-05-29 23:54:00,
2013-05-29 18:59:00,78.8,43.0,29.70,SSE,162,0.0,4.9,28,0.00,,CLR,0.00,VWS V14.01,2013-05-29 23:59:00,
2013-05-29 19:05:00,78.4,44.5,29.70,South,170,5.8,7.6,30,0.00,,CLR,0.00,VWS V14.01,2013-05-30 00:05:00,
2013-05-29 19:11:00,78.1,44.2,29.70,SSW,199,5.4,6.3,30,0.00,,CLR,0.00,VWS V14.01,2013-05-30 00:11:00,
2013-05-29 19:16:00,77.7,43.8,29.70,SSE,159,4.9,5.8,30,0.00,,CLR,0.00,VWS V14.01,2013-05-30 00:16:00,
2013-05-29 19:21:00,77.5,44.5,29.70,SE,128,3.6,5.4,31,0.00,,CLR,0.00,VWS V14.01,2013-05-30 00:21:00,
2013-05-29 19:26:00,77.2,44.2,29.70,South,191,4.0,4.0,31,0.00,,CLR,0.00,VWS V14.01,2013-05-30 00:26:00,
2013-05-29 19:31:00,77.0,44.1,29.70,SSE,153,4.9,7.6,31,0.00,,CLR,0.00,VWS V14.01,2013-05-30 00:31:00,
2013-05-29 19:37:00,76.6,44.6,29.70,SSE,161,3.6,5.4,32,0.00,,CLR,0.00,VWS V14.01,2013-05-30 00:37:00,
2013-05-29 19:42:00,76.5,44.4,29.70,SSE,149,0.0,3.6,32,0.00,,CLR,0.00,VWS V14.01,2013-05-30 00:42:00,
2013-05-29 19:47:00,76.3,45.1,29.73,SSE,163,3.6,3.6,33,0.00,,CLR,0.00,VWS V14.01,2013-05-30 00:47:00,
2013-05-29 19:52:00,76.1,44.9,29.73,SSE,152,5.4,6.3,33,0.00,,CLR,0.00,VWS V14.01,2013-05-30 00:52:00,
2013-05-29 19:58:00,75.9,44.8,29.73,South,173,0.0,0.0,33,0.00,,CLR,0.00,VWS V14.01,2013-05-30 00:58:00,
2013-05-29 20:03:00,75.7,45.4,29.73,ESE,122,3.1,3.1,34,0.00,,CLR,0.00,VWS V14.01,2013-05-30 01:03:00,
2013-05-29 20:09:00,75.6,46.0,29.73,South,186,3.6,4.9,35,0.00,,CLR,0.00,VWS V14.01,2013-05-30 01:09:00,
2013-05-29 20:15:00,75.2,45.7,29.70,SSW,192,6.3,6.3,35,0.00,,CLR,0.00,VWS V14.01,2013-05-30 01:15:00,
2013-05-29 20:21:00,75.0,46.3,29.70,SSE,164,6.3,6.3,36,0.00,,CLR,0.00,VWS V14.01,2013-05-30 01:21:00,
2013-05-29 20:26:00,74.8,46.1,29.70,South,187,4.0,4.0,36,0.00,,CLR,0.00,VWS V14.01,2013-05-30 01:26:00,
2013-05-29 20:32:00,74.7,46.7,29.70,SSE,160,3.1,5.8,37,0.00,,CLR,0.00,VWS V14.01,2013-05-30 01:32:00,
2013-05-29 20:37:00,74.5,46.5,29.70,SSE,152,0.0,0.0,37,0.00,,CLR,0.00,VWS V14.01,2013-05-30 01:37:00,
2013-05-29 20:42:00,74.5,47.2,29.70,South,187,5.4,5.8,38,0.00,,CLR,0.00,VWS V14.01,2013-05-30 01:42:00,
2013-05-29 20:47:00,74.3,47.1,29.70,SSE,160,4.0,5.4,38,0.00,,CLR,0.00,VWS V14.01,2013-05-30 01:47:00,
2013-05-29 20:53:00,74.3,47.8,29.70,ESE,117,3.1,8.1,39,0.00,,CLR,0.00,VWS V14.01,2013-05-30 01:53:00,
2013-05-29 20:59:00,74.3,47.8,29.70,West,262,13.2,13.2,39,0.00,,CLR,0.00,VWS V14.01,2013-05-30 01:59:00,
2013-05-29 21:04:00,73.0,38.9,29.73,SW,219,8.7,11.0,29,0.00,,CLR,0.00,VWS V14.01,2013-05-30 02:04:00,
2013-05-29 21:10:00,71.8,37.8,29.73,WSW,240,10.1,11.0,29,0.00,,CLR,0.00,VWS V14.01,2013-05-30 02:10:00,
2013-05-29 21:15:00,71.1,38.1,29.73,SW,219,3.6,8.7,30,0.00,,CLR,0.00,VWS V14.01,2013-05-30 02:15:00,
2013-05-29 21:21:00,70.3,39.1,29.73,SSW,192,5.4,10.5,32,0.00,,CLR,0.00,VWS V14.01,2013-05-30 02:21:00,
2013-05-29 21:27:00,68.5,41.3,29.73,WNW,297,4.5,6.3,37,0.00,,CLR,0.00,VWS V14.01,2013-05-30 02:27:00,
2013-05-29 21:32:00,67.8,42.6,29.76,WSW,237,0.0,4.0,40,0.00,,CLR,0.00,VWS V14.01,2013-05-30 02:32:00,
2013-05-29 21:38:00,67.1,44.5,29.76,SW,215,4.9,8.1,44,0.00,,CLR,0.00,VWS V14.01,2013-05-30 02:38:00,
2013-05-29 21:43:00,66.9,46.0,29.76,SSW,211,3.6,4.0,47,0.00,,CLR,0.00,VWS V14.01,2013-05-30 02:43:00,
2013-05-29 21:49:00,66.4,47.2,29.76,WSW,252,0.0,3.1,50,0.00,,CLR,0.00,VWS V14.01,2013-05-30 02:49:00,
2013-05-29 21:55:00,65.8,47.7,29.76,NNW,334,2.7,4.9,52,0.00,,CLR,0.00,VWS V14.01,2013-05-30 02:55:00,
2013-05-29 22:00:00,65.5,49.4,29.76,SW,222,2.2,2.2,56,0.00,,CLR,0.00,VWS V14.01,2013-05-30 03:00:00,
2013-05-29 22:05:00,65.5,50.8,29.76,SW,222,0.0,0.0,59,0.00,,BKN060,0.00,VWS V14.01,2013-05-30 03:05:00,
2013-05-29 22:11:00,65.3,50.6,29.76,SW,222,0.0,0.0,59,0.00,,BKN060,0.00,VWS V14.01,2013-05-30 03:11:00,
2013-05-29 22:16:00,65.3,50.6,29.76,SW,222,0.0,0.0,59,0.00,,BKN060,0.00,VWS V14.01,2013-05-30 03:16:00,
2013-05-29 22:21:00,65.1,50.5,29.76,SW,225,0.0,0.0,59,0.00,,BKN060,0.00,VWS V14.01,2013-05-30 03:21:00,
2013-05-29 22:27:00,65.1,51.3,29.76,SW,225,0.0,0.0,61,0.00,,BKN060,0.00,VWS V14.01,2013-05-30 03:27:00,
2013-05-29 22:32:00,65.1,52.7,29.76,SW,225,0.0,0.0,64,0.00,,BKN060,0.00,VWS V14.01,2013-05-30 03:32:00,
2013-05-29 22:37:00,65.1,53.1,29.76,SSE,160,0.0,0.0,65,0.00,,BKN060,0.00,VWS V14.01,2013-05-30 03:37:00,
2013-05-29 22:42:00,65.1,53.5,29.76,South,170,0.0,0.0,66,0.00,,BKN060,0.00,VWS V14.01,2013-05-30 03:42:00,
2013-05-29 22:47:00,65.1,54.7,29.76,South,170,0.0,0.0,69,0.00,,BKN060,0.00,VWS V14.01,2013-05-30 03:47:00,
2013-05-29 22:52:00,64.9,55.3,29.76,South,170,0.0,0.0,71,0.05,,BKN060,0.05,VWS V14.01,2013-05-30 03:52:00,
2013-05-29 22:57:00,64.8,55.5,29.76,South,170,0.0,0.0,72,0.05,,BKN060,0.05,VWS V14.01,2013-05-30 03:57:00,
2013-05-29 23:01:00,64.8,55.5,29.76,South,170,0.0,0.0,72,0.05,,-RA,0.05,VWS V14.01,2013-05-30 04:01:00,
2013-05-29 23:02:00,64.8,55.5,29.76,South,170,0.0,0.0,72,0.05,,-RA,0.05,VWS V14.01,2013-05-30 04:02:00,
2013-05-29 23:05:00,64.8,55.5,29.76,South,170,0.0,0.0,72,0.05,,-RA,0.05,VWS V14.01,2013-05-30 04:05:00,
2013-05-29 23:06:00,64.8,55.5,29.76,South,170,0.0,0.0,72,0.05,,-RA,0.05,VWS V14.01,2013-05-30 04:06:00,
2013-05-29 23:12:00,64.6,56.1,29.76,South,170,0.0,0.0,74,0.05,,-RA,0.05,VWS V14.01,2013-05-30 04:12:00,
2013-05-29 23:17:00,64.8,56.3,29.79,South,170,0.0,0.0,74,0.11,,-RA,0.11,VWS V14.01,2013-05-30 04:17:00,
2013-05-29 23:23:00,64.8,56.3,29.79,South,170,0.0,0.0,74,0.11,,-RA,0.11,VWS V14.01,2013-05-30 04:23:00,
2013-05-29 23:28:00,64.8,56.7,29.79,South,179,0.0,0.0,75,0.11,,-RA,0.11,VWS V14.01,2013-05-30 04:28:00,
2013-05-29 23:33:00,64.6,56.5,29.76,South,179,0.0,0.0,75,0.11,,-RA,0.11,VWS V14.01,2013-05-30 04:33:00,
2013-05-29 23:38:00,64.4,56.7,29.76,South,169,0.0,0.0,76,0.11,,-RA,0.11,VWS V14.01,2013-05-30 04:38:00,
2013-05-29 23:44:00,64.4,56.7,29.76,South,169,0.0,0.0,76,0.16,,-RA,0.16,VWS V14.01,2013-05-30 04:44:00,
2013-05-29 23:49:00,64.4,56.7,29.76,South,169,0.0,0.0,76,0.11,,-RA,0.16,VWS V14.01,2013-05-30 04:49:00,
2013-05-29 23:54:00,64.4,56.7,29.76,South,169,0.0,0.0,76,0.11,,-RA,0.16,VWS V14.01,2013-05-30 04:54:00,
2013-05-29 23:59:00,64.4,57.0,29.76,South,169,0.0,0.0,77,0.11,,-RA,0.16,VWS V14.01,2013-05-30 04:59:00,